Weather History for Palmer, AK

Change the Weather History Date:

Tuesday, July 9, 2013

  Actual Average Record
Temperature  
Mean Temperature 58 °F -  
Max Temperature 66 °F 67 °F 82 °F (1972)
Min Temperature 50 °F 48 °F 42 °F (1978)
Degree Days  
Heating Degree Days 7    
Growing Degree Days 8 (Base 50)    
Moisture  
Dew Point 48 °F    
Average Humidity 73    
Maximum Humidity 96    
Minimum Humidity 45    
Precipitation  
Precipitation 0.00 in - - ()
Sea Level Pressure  
Sea Level Pressure 29.95 in    
Wind  
Wind Speed 2 mph (WSW)    
Max Wind Speed 9 mph    
Max Gust Speed -    
Visibility 10 miles    
Events      
Averages and records for this station are not official NWS values.
T = Trace of Precipitation, MM = Missing Value Source: NWS Daily Summary

Daily Weather History Graph

Daily Weather History Graph

Search for Another Location

Airport:

Trip Planner

Search our weather history database for the weather conditions in past years. The results will help you decide how hot, cold, wet, or windy it might be!

Date:

Astronomy

Jul. 09, 2013 Rise Set
Actual Time 4:32 AM AKDT 11:29 PM AKDT
Civil Twilight 2:21 AM AKDT 1:31 AM AKDT
Nautical Twilight Sun does not rise Sun does not rise
Astronomical Twilight Sun does not rise Sun does not rise
Moon 7:01 AM AKDT (7/9) 11:06 PM AKDT (7/9)
Length of Visible Light 23h 09m
Length of Day
18h 57m
New Moon, 2% of the Moon is Illuminated
Jul 9
New Moon
Jul 15
First Quarter
Jul 22
Full
Jul 29
Last Quarter
Aug 6
New

Hourly Weather History & Observations

Time (AKDT) Temp. Dew Point Humidity Pressure Visibility Wind Dir Wind Speed Gust Speed Precip Events Conditions
12:53 AM 52.0 °F 48.0 °F 86% 29.86 in 10.0 mi Calm Calm - N/A   Overcast
1:53 AM 51.1 °F 48.9 °F 92% 29.87 in 10.0 mi North 3.5 mph - N/A   Overcast
2:53 AM 51.1 °F 48.0 °F 89% 29.88 in 10.0 mi North 3.5 mph - N/A   Overcast
3:53 AM 50.0 °F 48.0 °F 93% 29.89 in 10.0 mi North 3.5 mph - N/A   Overcast
4:05 AM 50.0 °F 48.2 °F 94% 29.88 in 10.0 mi Calm Calm - N/A   Overcast
4:53 AM 50.0 °F 48.9 °F 96% 29.90 in 10.0 mi Calm Calm - N/A   Overcast
5:06 AM 50.0 °F 48.2 °F 94% 29.89 in 10.0 mi Calm Calm - N/A   Overcast
5:53 AM 50.0 °F 48.0 °F 93% 29.91 in 10.0 mi Calm Calm - N/A   Overcast
6:53 AM 50.0 °F 46.9 °F 89% 29.92 in 10.0 mi Calm Calm - N/A   Overcast
7:53 AM 53.1 °F 48.9 °F 86% 29.93 in 10.0 mi Calm Calm - N/A   Mostly Cloudy
8:53 AM 55.0 °F 48.9 °F 80% 29.94 in 10.0 mi Calm Calm - N/A   Overcast
9:53 AM 57.9 °F 50.0 °F 75% 29.95 in 10.0 mi Calm Calm - N/A   Overcast
10:53 AM 57.9 °F 48.9 °F 72% 29.96 in 10.0 mi Variable 3.5 mph - N/A   Overcast
11:53 AM 57.9 °F 48.9 °F 72% 29.97 in 10.0 mi SSW 4.6 mph - N/A   Overcast
12:53 PM 59.0 °F 48.0 °F 67% 29.98 in 10.0 mi Variable 4.6 mph - N/A   Overcast
1:00 PM 60.8 °F 48.2 °F 63% 29.97 in 10.0 mi WSW 5.8 mph - N/A   Overcast
1:23 PM 60.8 °F 48.2 °F 63% 29.97 in 10.0 mi Variable 3.5 mph - N/A   Overcast
1:53 PM 62.1 °F 48.9 °F 62% 29.98 in 10.0 mi SW 4.6 mph - N/A   Overcast
2:53 PM 64.0 °F 48.9 °F 58% 29.98 in 10.0 mi SW 6.9 mph - N/A   Overcast
3:53 PM 62.1 °F 50.0 °F 65% 29.99 in 10.0 mi West 9.2 mph - 0.00 in   Overcast
4:53 PM 64.0 °F 48.9 °F 58% 29.99 in 10.0 mi SW 5.8 mph - N/A   Partly Cloudy
5:53 PM 64.0 °F 46.0 °F 52% 29.99 in 10.0 mi Variable 5.8 mph - N/A   Mostly Cloudy
6:53 PM 66.0 °F 44.1 °F 45% 29.99 in 10.0 mi WSW 8.1 mph - N/A   Mostly Cloudy
7:53 PM 64.0 °F 44.1 °F 48% 30.00 in 10.0 mi WSW 6.9 mph - N/A   Clear
8:53 PM 61.0 °F 45.0 °F 56% 30.01 in 10.0 mi West 3.5 mph - N/A   Partly Cloudy
9:53 PM 59.0 °F 48.0 °F 67% 30.02 in 10.0 mi South 3.5 mph - N/A   Scattered Clouds
10:53 PM 57.9 °F 46.9 °F 67% 30.03 in 10.0 mi Calm Calm - N/A   Partly Cloudy
11:53 PM 55.9 °F 46.9 °F 72% 30.04 in 10.0 mi SSW 3.5 mph - N/A   Mostly Cloudy